Big Rapids, MI

12:22 PM EST on December 10, 2019 (GMT -0500)
Roben-Hood

Weather History for KRQB - November, 2019

Change the Weather History Date:

Thursday, November 21, 2019

  Actual Average Record
Temperature  
Mean Temperature 42 °F -  
Max Temperature 50 °F 40 °F 62 °F (1990)
Min Temperature 35 °F 26 °F 3 °F (2014)
Degree Days  
Heating Degree Days 22    
Moisture  
Dew Point 40 °F    
Average Humidity 92    
Maximum Humidity 96    
Minimum Humidity 85    
Precipitation  
Precipitation 0.37 in - - ()
Sea Level Pressure  
Sea Level Pressure 29.78 in    
Wind  
Wind Speed 7 mph ()    
Max Wind Speed 18 mph    
Max Gust Speed 28 mph    
Visibility 5.4 miles    
Events Rain    
Averages and records for this station are not official NWS values.
T = Trace of Precipitation, MM = Missing Value Source: Averaged Metar Reports

Daily Weather History Graph

Daily Weather History Graph

Search for Another Location

Airport or City:

Astronomy

Nov. 21, 2019 Rise Set
Actual Time 7:43 AM EST 5:11 PM EST
Civil Twilight 7:12 AM EST 5:43 PM EST
Nautical Twilight 6:36 AM EST 6:18 PM EST
Astronomical Twilight 6:02 AM EST 6:52 PM EST
Moon 1:24 AM EST (11/21) 2:53 PM EST (11/21)
Length of Visible Light 10h 30m
Length of Day
9h 27m
Waning Crescent, 30% of the Moon is Illuminated
Nov 21
Waning Crescent
Nov 26
New
Dec 4
First Quarter
Dec 12
Full
Dec 18
Last Quarter

Hourly Weather History & Observations

Time (EST) Temp. Windchill Dew Point Humidity Pressure Visibility Wind Dir Wind Speed Gust Speed Precip Events Conditions
12:15 AM 36.9 °F - 35.8 °F 96% 30.10 in 4.0 mi Calm Calm - N/A   Overcast
12:16 AM 36.9 °F - 35.8 °F 96% 30.10 in 4.0 mi Calm Calm - N/A   Overcast
12:35 AM 37.4 °F - 36.1 °F 95% 30.09 in 5.0 mi Calm Calm - N/A   Overcast
12:55 AM 38.1 °F 35.7 °F 36.1 °F 93% 30.08 in 5.0 mi SSE 3.5 mph - N/A   Overcast
1:15 AM 38.3 °F 35.9 °F 35.8 °F 91% 30.08 in 5.0 mi South 3.5 mph - N/A   Overcast
1:35 AM 38.3 °F - 35.6 °F 90% 30.07 in 5.0 mi Calm Calm - N/A   Mostly Cloudy
1:55 AM 38.7 °F - 35.6 °F 89% 30.06 in 7.0 mi Calm Calm - N/A   Mostly Cloudy
1:56 AM 38.7 °F - 35.6 °F 89% 30.06 in 7.0 mi Calm Calm - N/A   Mostly Cloudy
2:15 AM 38.8 °F 36.5 °F 35.6 °F 88% 30.05 in 7.0 mi South 3.5 mph - N/A   Overcast
2:35 AM 39.4 °F 35.2 °F 35.6 °F 86% 30.05 in 7.0 mi SSE 5.8 mph - N/A   Overcast
2:36 AM 39.4 °F 35.2 °F 35.6 °F 86% 30.04 in 7.0 mi SSE 5.8 mph - N/A   Overcast
2:55 AM 39.4 °F 36.1 °F 35.6 °F 86% 30.03 in 7.0 mi South 4.6 mph - N/A   Overcast
2:56 AM 39.2 °F 35.9 °F 35.6 °F 87% 30.03 in 7.0 mi South 4.6 mph - N/A   Overcast
3:15 AM 39.4 °F 36.1 °F 35.6 °F 86% 30.02 in 7.0 mi SSE 4.6 mph - N/A   Overcast
3:35 AM 39.6 °F 34.7 °F 35.6 °F 86% 30.01 in 7.0 mi South 6.9 mph - N/A   Overcast
3:55 AM 39.9 °F 33.9 °F 35.6 °F 85% 30.00 in 7.0 mi South 9.2 mph - N/A   Mostly Cloudy
4:15 AM 39.7 °F 34.3 °F 35.8 °F 86% 29.99 in 7.0 mi South 8.1 mph - N/A   Overcast
4:35 AM 39.7 °F 34.3 °F 35.8 °F 86% 29.97 in 7.0 mi South 8.1 mph - N/A   Overcast
4:55 AM 39.6 °F 33.5 °F 35.8 °F 86% 29.96 in 7.0 mi SSE 9.2 mph - N/A   Mostly Cloudy
5:15 AM 39.7 °F 34.9 °F 36.0 °F 86% 29.95 in 7.0 mi South 6.9 mph - N/A   Clear
5:16 AM 39.7 °F 34.3 °F 36.0 °F 86% 29.95 in 7.0 mi South 8.1 mph - N/A   Clear
5:35 AM 39.6 °F 34.0 °F 36.1 °F 88% 29.94 in 7.0 mi SSE 8.1 mph - N/A   Mostly Cloudy
5:36 AM 39.6 °F 34.0 °F 36.1 °F 88% 29.94 in 7.0 mi South 8.1 mph - N/A   Mostly Cloudy
5:55 AM 39.6 °F 34.7 °F 36.1 °F 88% 29.92 in 7.0 mi SSE 6.9 mph - N/A   Overcast
5:56 AM 39.6 °F 34.0 °F 36.1 °F 88% 29.92 in 7.0 mi SSE 8.1 mph - N/A   Overcast
6:15 AM 40.1 °F 34.1 °F 36.5 °F 87% 29.91 in 7.0 mi SSE 9.2 mph - N/A   Mostly Cloudy
6:35 AM 40.1 °F 34.1 °F 36.5 °F 87% 29.90 in 7.0 mi SSE 9.2 mph - N/A Rain Light Rain
6:36 AM 40.1 °F 34.1 °F 36.5 °F 87% 29.90 in 7.0 mi SSE 9.2 mph - N/A Rain Light Rain
6:55 AM 40.3 °F 34.9 °F 36.9 °F 88% 29.88 in 7.0 mi SSE 8.1 mph - N/A Rain Light Rain
7:35 AM 40.6 °F 35.4 °F 37.2 °F 88% 29.87 in 5.0 mi South 8.1 mph - N/A Rain Light Rain
7:36 AM 40.6 °F 36.0 °F 37.2 °F 88% 29.87 in 5.0 mi South 6.9 mph - N/A Rain Light Rain
7:55 AM 40.5 °F 34.6 °F 37.8 °F 90% 29.86 in 5.0 mi SSE 9.2 mph - N/A Rain Light Rain
7:56 AM 40.5 °F 34.6 °F 37.8 °F 90% 29.86 in 5.0 mi SSE 9.2 mph - N/A Rain Light Rain
8:15 AM 40.6 °F 34.8 °F 38.3 °F 91% 29.84 in 4.0 mi SSE 9.2 mph - N/A Rain Light Rain
8:16 AM 40.6 °F 34.8 °F 38.3 °F 91% 29.84 in 4.0 mi SSE 9.2 mph - N/A Rain Light Rain
8:35 AM 41.0 °F 34.7 °F 38.5 °F 91% 29.83 in 3.0 mi SSE 10.4 mph 16.1 mph 0.01 in   Unknown
8:36 AM 41.0 °F 34.3 °F 38.7 °F 91% 29.83 in 3.0 mi SSE 11.5 mph 16.1 mph 0.01 in   Unknown
8:55 AM 41.0 °F 34.7 °F 39.0 °F 93% 29.81 in 4.0 mi SSE 10.4 mph - 0.02 in Rain Light Rain
9:15 AM 41.5 °F 35.4 °F 39.6 °F 93% 29.80 in 3.0 mi South 10.4 mph 17.3 mph N/A   Unknown
9:16 AM 41.7 °F 34.8 °F 39.6 °F 92% 29.80 in 3.0 mi SSE 12.7 mph 18.4 mph N/A   Unknown
9:55 AM 42.4 °F 35.7 °F 40.8 °F 94% 29.75 in 2.5 mi South 12.7 mph 21.9 mph 0.08 in   Unknown
10:15 AM 43.3 °F 36.1 °F 41.5 °F 93% 29.73 in 5.0 mi South 15.0 mph 24.2 mph N/A Rain Light Rain
10:16 AM 43.3 °F 35.8 °F 41.5 °F 93% 29.73 in 5.0 mi South 16.1 mph 24.2 mph N/A Rain Light Rain
10:35 AM 43.3 °F 36.8 °F 41.5 °F 93% 29.72 in 5.0 mi South 12.7 mph 20.7 mph N/A   Overcast
10:55 AM 44.2 °F 37.6 °F 42.4 °F 93% 29.71 in 2.5 mi South 13.8 mph 20.7 mph 0.01 in   Unknown
11:15 AM 44.6 °F 38.1 °F 43.0 °F 94% 29.69 in 3.0 mi South 13.8 mph 18.4 mph N/A Rain Light Rain
11:35 AM 44.8 °F 38.7 °F 43.2 °F 94% 29.67 in 2.5 mi South 12.7 mph 19.6 mph N/A Rain Rain
11:36 AM 44.8 °F 38.0 °F 43.2 °F 94% 29.67 in 2.5 mi South 15.0 mph 19.6 mph N/A Rain Rain
11:55 AM 45.0 °F 40.1 °F 43.7 °F 95% 29.65 in 4.0 mi South 9.2 mph 17.3 mph N/A   Light Drizzle
11:56 AM 45.1 °F 40.8 °F 43.7 °F 95% 29.65 in 4.0 mi South 8.1 mph 17.3 mph N/A   Light Drizzle
12:15 PM 45.5 °F 39.2 °F 44.1 °F 95% 29.63 in 3.0 mi South 13.8 mph 27.6 mph N/A   Unknown
12:16 PM 45.5 °F 38.9 °F 44.1 °F 95% 29.63 in 3.0 mi South 15.0 mph 27.6 mph N/A   Unknown
12:35 PM 45.9 °F 40.0 °F 44.4 °F 95% 29.61 in 1.2 mi South 12.7 mph 19.6 mph 0.02 in Rain Light Rain
12:55 PM 46.4 °F 40.7 °F 44.8 °F 94% 29.60 in 7.0 mi SSW 12.7 mph 20.7 mph 0.04 in Rain Rain
1:15 PM 46.4 °F 41.9 °F 45.0 °F 95% 29.59 in 1.5 mi SSW 9.2 mph 21.9 mph 0.01 in Rain Light Rain
1:35 PM 46.8 °F - 45.3 °F 95% 29.57 in 4.0 mi SSW 8.1 mph 20.7 mph 0.04 in Rain Light Rain
1:55 PM 46.8 °F - 45.5 °F 95% 29.56 in 1.8 mi SSW 11.5 mph 18.4 mph 0.06 in Rain Light Rain
1:56 PM 46.8 °F - 45.5 °F 95% 29.56 in 1.8 mi SSW 10.4 mph 18.4 mph 0.06 in Rain Light Rain
2:15 PM 46.9 °F - 45.5 °F 95% 29.55 in 2.0 mi SSW 9.2 mph - 0.03 in   Overcast
2:35 PM 47.3 °F - 45.9 °F 95% 29.55 in 1.8 mi SSW 8.1 mph - 0.06 in   Overcast
2:36 PM 47.3 °F - 45.9 °F 95% 29.55 in 1.8 mi SSW 6.9 mph - 0.07 in   Overcast
2:55 PM 47.8 °F - 46.6 °F 95% 29.54 in 1.8 mi SSW 6.9 mph - 0.11 in Rain Light Rain
3:15 PM 48.7 °F - 47.5 °F 95% 29.53 in 1.8 mi SW 15.0 mph 23.0 mph 0.01 in Rain Light Rain
3:35 PM 49.5 °F - 48.2 °F 95% 29.53 in 1.8 mi SW 12.7 mph 18.4 mph 0.03 in Rain Light Rain
3:36 PM 49.6 °F - 48.4 °F 95% 29.53 in 1.8 mi SW 12.7 mph 18.4 mph 0.03 in Rain Light Rain
3:55 PM 50.0 °F - 48.6 °F 95% 29.53 in 1.5 mi SW 9.2 mph - 0.04 in   Unknown
3:56 PM 50.0 °F - 48.6 °F 95% 29.53 in 1.5 mi SW 9.2 mph - 0.04 in   Unknown
4:15 PM 50.2 °F - 48.7 °F 95% 29.52 in 2.0 mi SW 17.3 mph 23.0 mph N/A Rain Light Rain
4:35 PM 50.4 °F - 48.9 °F 95% 29.53 in 1.8 mi WSW 13.8 mph 20.7 mph 0.01 in Rain Light Rain
4:55 PM 50.5 °F - 49.1 °F 95% 29.54 in 2.5 mi WSW 12.7 mph 21.9 mph 0.01 in   Overcast
4:56 PM 50.5 °F - 49.1 °F 95% 29.54 in 2.5 mi WSW 11.5 mph 21.9 mph 0.01 in   Overcast
5:15 PM 50.5 °F - 49.1 °F 95% 29.55 in 3.0 mi WSW 12.7 mph 20.7 mph N/A   Overcast
5:35 PM 50.5 °F - 49.1 °F 95% 29.57 in 7.0 mi West 17.3 mph 26.5 mph N/A   Overcast
5:36 PM 50.5 °F - 49.1 °F 95% 29.57 in 7.0 mi West 18.4 mph 26.5 mph N/A   Overcast
5:55 PM 49.6 °F - 48.0 °F 94% 29.58 in 5.0 mi WNW 12.7 mph 23.0 mph N/A   Overcast
5:56 PM 49.5 °F - 47.8 °F 94% 29.58 in 5.0 mi West 17.3 mph 24.2 mph N/A   Overcast
6:15 PM 47.1 °F - 45.7 °F 95% 29.62 in 7.0 mi WNW 13.8 mph 21.9 mph N/A   Overcast
6:35 PM 44.8 °F 38.7 °F 43.2 °F 94% 29.64 in 10.0 mi NW 12.7 mph 25.3 mph N/A   Overcast
6:36 PM 44.8 °F 39.4 °F 43.2 °F 94% 29.64 in 10.0 mi NW 10.4 mph 25.3 mph N/A   Overcast
6:55 PM 43.7 °F 36.9 °F 41.7 °F 93% 29.67 in 7.0 mi NW 13.8 mph 24.2 mph N/A   Overcast
7:15 PM 43.0 °F 36.0 °F 40.8 °F 92% 29.69 in 5.0 mi WNW 13.8 mph 23.0 mph N/A Rain Light Rain
7:35 PM 41.9 °F 35.4 °F 39.6 °F 91% 29.71 in 7.0 mi WNW 11.5 mph 19.6 mph N/A   Overcast
7:55 PM 40.8 °F 32.6 °F 38.5 °F 91% 29.72 in 10.0 mi NW 16.1 mph 23.0 mph N/A   Overcast
8:15 PM 39.4 °F 32.7 °F 37.4 °F 93% 29.74 in 7.0 mi NW 10.4 mph 21.9 mph N/A   Overcast
8:16 PM 39.4 °F 34.5 °F 37.4 °F 93% 29.73 in 7.0 mi NW 6.9 mph 21.9 mph N/A   Overcast
8:35 PM 38.8 °F 31.6 °F 36.7 °F 92% 29.74 in 7.0 mi NW 11.5 mph 18.4 mph N/A   Overcast
8:36 PM 38.8 °F 31.6 °F 36.7 °F 92% 29.74 in 7.0 mi WNW 11.5 mph 18.4 mph N/A   Overcast
8:55 PM 38.7 °F 31.4 °F 36.1 °F 91% 29.76 in 10.0 mi NW 11.5 mph 24.2 mph N/A   Overcast
9:15 PM 38.7 °F 30.9 °F 35.8 °F 89% 29.77 in 10.0 mi NW 12.7 mph 18.4 mph N/A   Overcast
9:16 PM 38.7 °F 30.5 °F 35.8 °F 89% 29.77 in 10.0 mi NW 13.8 mph 18.4 mph N/A   Overcast
9:35 PM 37.9 °F 30.0 °F 35.2 °F 90% 29.79 in 7.0 mi NW 12.7 mph 25.3 mph N/A   Overcast
9:36 PM 37.8 °F 31.3 °F 35.2 °F 91% 29.79 in 7.0 mi WNW 9.2 mph 25.3 mph N/A   Overcast
9:55 PM 37.6 °F 30.5 °F 35.2 °F 91% 29.81 in 10.0 mi WNW 10.4 mph 16.1 mph N/A   Overcast
9:56 PM 37.6 °F 30.5 °F 35.1 °F 91% 29.81 in 7.0 mi WNW 10.4 mph 16.1 mph N/A   Overcast
10:15 PM 36.9 °F 29.6 °F 34.7 °F 92% 29.82 in 7.0 mi NW 10.4 mph 18.4 mph N/A   Overcast
10:35 PM 36.7 °F 29.4 °F 34.2 °F 91% 29.82 in 10.0 mi NW 10.4 mph 16.1 mph N/A   Overcast
10:36 PM 36.5 °F 28.7 °F 34.2 °F 91% 29.82 in 10.0 mi NW 11.5 mph - N/A   Overcast
10:55 PM 36.5 °F 29.2 °F 34.2 °F 91% 29.83 in 7.0 mi NW 10.4 mph - N/A   Overcast
11:35 PM 35.6 °F 26.6 °F 33.3 °F 91% 29.84 in 7.0 mi NW 13.8 mph 20.7 mph N/A   Overcast
11:36 PM 35.6 °F 28.0 °F 33.3 °F 91% 29.84 in 10.0 mi NW 10.4 mph 20.7 mph N/A   Overcast
11:55 PM 35.2 °F 28.1 °F 32.4 °F 89% 29.85 in 10.0 mi NW 9.2 mph 18.4 mph N/A   Overcast